Starlink 30116

operational
NORAD ID: 57465 Int'l Des: 2023-107 Owner: SPXS Country: US Constellation: starlink
LEOCIRCULAR

About Starlink 30116

Description loading...

Live Position

Loading 3D Globe...

Upcoming Passes

Altitude History

Altitude vs Time

uPlot chart will show altitude changes over time

Two-Line Element Set

1 57465U 23107J 25306.32136407 -.00000265 00000-0 -45499-5 0 9993
2 57465 43.0037 311.0731 0001265 267.1563 92.9135 15.02535315125957
Epoch: Nov 2, 2025 • Age: 37 hours

Current Status

Altitude 558.8 km
Velocity 7.58 km/s
Sub-Earth Point -0.62°S, 47.31°W
Launch Date Jul 28, 2023
Age 2.2 years
Type internet

Technical Details

Classification Payload
Mass 730.00 kg
Dry Mass 700.00 kg
Total Mass 730.00 kg
Length 0.30 m
Diameter 4.10 m
Span 29.00 m
Shape Box + pan
Manufacturer SPXS
Bus Type Starlink V2M
Phase Status In Orbit
Owner/State SPXS/US

Large Constellations

Loading constellations...